軌道要素
Epoch 2016 Feb. 22.0 TT = JDT 2457440.5
T 2016 Mar. 10.48316 TT MPCW
q 2.6702087 (2000.0) P Q
z +0.0006202 Peri. 85.00943 -0.10046985 -0.35270769
+/-0.0000001 Node 69.96278 -0.27383721 -0.88913940
e 0.9983439 Incl. 81.99860 +0.95651398 -0.29159631
From 3260 observations 2014 Oct. 24-2017 Sept. 11, mean residual 0".5.
|